RH
51 39 46 47 44 46 48 46 46 46 45 45 41 36 37 37 38 43 49 59 67 65 64 69 77 76 72 79 82 72 56 57 64 69 67 64 68 69 73 79 78 80 74
50 42 50 46 44 46 47 45 43 45 47 46 44 38 38 39 39 40 39 47 57 60 65 66 70 72 71 75 77 66 54 56 68 70 66 62 67 72 88 93 79 82 80
50 44 51 48 44 47 48 48 47 46 48 48 46 40 39 41 40 42 42 49 55 56 57 61 64 65 68 66 65 57 52 58 70 70 69 65 72 76 90 93 75 79 82
52 50 44 53 49 50 51 53 53 51 49 48 49 46 41 42 43 46 46 50 51 52 55 57 56 59 63 60 58 57 54 65 71 75 85 76 70 74 88 86 78 80 82
62 56 49 50 53 52 52 54 55 54 52 52 52 52 44 43 46 48 49 52 55 71 80 71 70 82 80 70 65 66 66 67 71 73 82 82 67 69 78 86 78 78 80
59 66 58 55 53 57 56 56 56 54 54 55 56 56 49 46 50 50 51 51 59 76 81 84 84 80 77 74 74 72 69 64 73 73 74 75 60 68 81 82 77 77 75
62 63 67 61 52 52 58 57 58 55 56 57 62 60 54 49 52 54 54 53 57 72 82 83 76 69 73 74 74 76 71 65 73 72 73 81 59 44 60 81 78 80 79
52 65 65 67 64 56 58 59 58 58 60 62 61 61 59 51 52 57 58 57 59 68 81 83 74 70 70 66 70 74 74 68 69 77 73 77 64 59 74 77 80 83 86
51 67 67 67 68 68 61 60 60 62 64 65 63 64 63 58 56 59 61 61 60 64 70 82 80 72 72 68 67 69 72 74 73 67 73 75 73 58 85 72 80 81 84
62 57 72 75 75 73 70 64 61 62 65 68 70 69 70 70 67 66 66 66 62 62 63 81 81 74 78 75 69 71 73 73 73 72 76 71 66 77 82 73 76 79 81
64 65 76 79 71 77 76 70 65 66 67 69 75 76 76 78 76 75 73 70 66 64 63 75 76 75 77 81 75 74 77 75 72 70 70 73 72 66 82 73 80 78 78
64 68 63 71 77 71 81 77 69 65 65 67 69 73 77 76 74 76 76 75 71 69 70 76 79 78 81 81 80 75 76 75 75 70 73 76 71 69 75 71 74 78 78
41 66 66 66 73 68 91 88 78 66 67 68 68 68 67 70 72 76 74 78 77 79 79 81 83 84 82 80 81 79 75 74 75 72 77 79 74 72 70 64 71 72 78
17 55 73 71 75 74 70 88 85 78 68 67 69 69 70 70 80 87 85 80 79 80 83 81 81 81 79 79 81 80 82 79 76 74 76 75 71 71 69 63 66 68 72
23 34 48 66 69 80 78 78 87 90 85 76 69 68 72 73 70 80 83 83 82 79 80 82 82 80 78 76 78 80 83 78 81 82 80 75 74 67 70 70 66 68 78
29 37 36 40 40 39 64 80 74 77 83 86 84 80 78 78 75 73 77 79 78 79 77 77 82 82 81 79 79 79 80 79 78 82 81 74 75 71 69 68 70 72 81
37 37 41 44 47 49 50 51 61 79 78 73 77 78 81 82 82 76 73 75 73 73 76 73 74 77 84 82 81 78 78 79 79 82 83 76 76 74 70 67 73 74 80
40 42 43 45 47 50 52 54 53 50 54 68 74 70 73 73 77 83 76 73 69 66 74 74 72 76 78 80 82 81 80 80 82 82 84 82 79 77 72 68 73 77 76
45 48 50 52 54 54 54 53 53 51 48 44 51 72 69 69 70 71 76 76 72 72 70 69 69 68 78 80 82 80 80 82 82 86 86 84 86 82 75 72 73 79 81
49 52 54 56 58 59 60 58 55 54 52 53 54 45 51 70 70 72 69 70 70 74 75 77 73 70 78 81 84 83 76 76 83 86 85 84 81 81 79 75 77 73 82
50 52 56 60 64 66 68 69 68 69 64 56 53 55 52 66 70 76 82 74 70 78 81 77 77 87 88 85 89 90 90 83 84 84 84 86 84 79 81 83 85 78 83
54 57 60 65 67 68 75 75 78 79 75 71 65 54 52 51 52 74 81 94 93 84 87 84 77 90 95 91 88 97 99 97 93 91 83 88 87 86 89 88 89 85 83
58 62 66 68 70 74 75 79 81 81 81 84 80 70 63 69 68 64 70 85 95 90 83 79 97 87 97 96 86 88 99 94 97 93 88 77 90 87 83 89 92 85 87
63 64 67 72 75 77 78 82 87 91 92 91 92 89 84 69 74 74 74 77 78 90 80 78 81 72 66 91 96 79 72 79 94 99 99 99 85 86 88 96 94 88 88
62 67 70 76 79 80 82 86 90 92 94 94 94 95 94 91 83 82 74 75 73 80 76 84 87 63 86 90 65 88 85 82 77 95 96 100 100 98 88 90 90 89 86
64 69 74 80 81 82 86 89 94 94 95 96 97 97 97 98 97 90 83 74 75 74 77 92 81 87 95 86 83 85 78 86 86 93 96 96 95 100 91 98 99 95 88
Wind_Speed
6 14 21 22 22 21 21 20 18 17 15 13 13 14 13 13 12 13 13 13 15 16 16 16 16 17 16 12 7 3 3 4 6 7 9 9 14 17 19 19 19 20 21
7 16 21 22 21 20 20 19 17 16 15 14 13 14 14 14 13 13 14 15 15 15 14 14 14 14 14 10 8 5 2 2 4 6 6 10 15 18 21 15 17 20 21
8 14 21 22 22 19 18 17 17 16 15 15 15 16 16 15 14 14 15 15 16 15 13 12 12 12 11 11 9 7 4 2 3 4 6 10 16 19 18 14 16 20 20
6 11 18 21 21 20 18 16 15 15 14 15 16 17 17 17 16 15 16 16 15 14 12 12 12 11 10 10 9 8 6 5 4 6 10 10 13 15 14 12 16 18 19
5 12 15 21 21 20 19 17 15 14 15 15 15 16 18 19 17 16 16 16 15 14 12 11 10 9 9 9 9 8 6 6 5 6 9 8 11 10 8 12 15 17 18
9 14 14 14 23 20 19 16 15 15 14 14 15 16 17 19 18 17 16 16 16 14 13 11 11 12 11 10 9 8 7 6 7 6 5 11 11 14 8 12 13 17 18
4 4 14 9 20 22 19 17 15 15 15 15 15 16 17 19 19 17 17 18 18 16 14 13 11 10 10 11 9 9 8 7 7 4 6 10 11 17 15 13 16 17 18
6 4 11 11 11 19 19 18 17 16 15 15 15 16 17 19 19 18 17 18 19 18 16 13 11 12 12 12 11 10 9 8 8 8 6 12 12 10 15 18 19 19 20
11 9 8 12 12 14 19 20 18 16 15 15 16 17 17 19 20 19 18 19 20 19 17 15 13 13 13 13 12 10 9 9 9 7 8 16 13 15 21 21 20 22 21
14 11 12 10 9 12 20 22 21 19 16 17 18 18 18 18 19 19 19 19 20 20 19 17 15 14 14 14 13 12 11 11 10 8 6 5 8 14 19 24 24 23 19
15 16 13 12 10 9 19 23 22 20 18 18 18 19 19 20 20 20 21 21 22 22 21 20 17 15 15 15 14 14 13 13 12 9 8 11 16 19 21 21 22 21 21
16 18 18 15 13 10 14 19 22 22 22 21 20 20 21 21 21 22 21 22 23 23 23 21 19 17 17 17 17 16 17 15 14 11 7 11 15 15 17 16 19 20 21
6 19 19 18 16 12 14 16 18 24 24 23 22 22 22 21 20 20 22 23 24 24 25 24 22 21 20 20 19 17 17 18 16 14 14 10 12 14 15 16 18 20 20
6 17 15 14 14 15 16 13 22 21 24 24 25 23 23 23 23 23 22 23 25 28 28 28 26 24 23 23 22 19 18 16 17 17 16 15 15 14 13 16 19 20 19
17 22 16 10 4 6 12 21 15 18 21 25 27 28 27 27 28 28 28 27 28 29 30 30 29 27 26 26 24 23 21 18 14 15 16 16 15 14 15 17 20 21 23
16 18 17 16 12 7 4 12 18 19 21 22 24 29 32 30 29 29 30 33 30 33 33 31 32 29 28 26 26 24 24 22 17 17 16 15 14 14 14 16 19 20 24
20 16 17 15 14 14 10 8 4 14 20 21 24 27 27 34 31 31 32 32 35 33 34 31 29 30 30 27 27 26 24 21 18 17 16 14 14 14 12 13 19 21 24
24 23 18 17 15 13 11 11 11 11 11 12 22 25 28 30 32 29 33 34 35 34 36 35 32 31 34 32 27 25 23 21 19 18 17 17 16 14 13 14 18 22 22
26 24 21 17 17 14 14 14 15 16 15 17 18 18 26 29 34 37 36 33 29 26 36 40 39 37 33 31 30 26 22 19 20 19 18 18 18 17 18 17 15 24 25
25 21 20 19 18 17 15 15 14 14 14 14 16 20 22 28 30 35 38 42 39 35 28 37 40 40 36 34 27 24 22 20 20 20 20 21 21 20 19 20 22 22 29
22 20 19 18 19 19 20 21 22 24 25 25 25 23 21 17 29 36 42 43 41 43 36 37 36 34 30 31 22 15 14 18 19 19 20 21 22 20 21 23 22 20 27
24 19 18 17 18 19 20 19 17 18 16 23 27 30 32 32 29 29 40 37 36 40 36 35 38 23 19 31 12 10 2 4 16 19 20 21 22 22 22 22 23 22 25
26 23 20 18 18 19 21 24 25 24 21 19 22 28 30 28 28 28 33 39 36 39 38 34 25 21 15 18 17 8 2 4 3 14 23 24 25 23 23 22 24 23 23
27 23 20 19 19 18 21 22 22 18 20 23 26 29 35 38 38 34 29 39 42 39 39 39 40 24 31 31 15 26 9 7 3 3 7 23 27 26 24 23 24 23 21
26 23 20 21 20 22 22 21 21 20 21 24 26 29 33 34 36 32 33 31 42 40 40 43 38 31 39 34 23 35 27 13 10 3 3 5 20 27 27 27 25 25 24
23 19 19 22 22 23 25 23 22 23 25 25 27 29 30 30 34 34 31 31 34 42 40 40 40 39 37 33 37 37 32 22 14 5 3 3 9 15 26 28 26 27 26
Wind_Direction
126 163 174 168 163 159 155 152 153 152 152 154 159 158 153 149 140 136 136 137 139 148 158 161 162 173 186 190 194 180 135 126 127 123 119 124 125 122 122 126 133 130 132
138 172 180 174 168 166 163 159 160 160 159 162 164 165 162 158 153 148 149 151 154 157 162 167 177 184 190 205 210 222 202 144 124 122 131 131 126 126 128 129 138 136 135
137 176 183 183 176 172 171 168 168 171 171 170 170 172 169 166 162 157 157 158 162 163 165 168 177 190 203 214 218 223 222 196 147 136 136 131 134 139 141 145 151 147 144
157 174 190 190 183 178 176 177 179 182 182 181 178 175 174 173 171 166 166 165 167 169 171 176 183 194 206 215 218 224 219 196 157 153 130 126 146 153 152 154 159 152 151
208 184 184 198 193 187 187 185 188 193 194 189 187 183 180 179 178 174 174 173 172 173 174 182 184 195 211 215 217 217 213 202 166 171 165 158 152 155 165 171 164 162 160
11 198 183 198 199 196 194 196 197 199 200 200 194 192 188 187 185 181 182 182 180 181 181 187 197 209 216 221 226 224 218 206 184 179 179 164 157 163 158 176 172 175 167
33 178 184 191 203 205 201 202 204 204 204 202 201 196 194 193 192 190 190 189 188 188 187 200 212 213 220 229 235 236 226 209 204 176 182 192 193 188 184 202 181 185 173
152 156 189 189 198 207 207 206 205 206 205 202 200 200 198 198 199 198 198 197 195 195 196 206 214 220 226 230 231 237 238 226 213 181 121 169 155 186 185 202 187 188 182
153 171 188 196 201 208 212 210 206 206 205 203 201 199 200 201 203 205 206 206 203 202 204 209 217 227 232 236 232 225 228 236 237 190 175 199 239 195 200 196 193 194 190
160 178 186 196 213 226 211 209 206 205 205 202 202 203 205 205 208 209 212 212 210 208 209 212 219 229 236 240 237 232 227 223 231 235 221 198 192 175 208 198 194 194 195
174 178 187 189 209 238 217 206 206 205 205 205 204 206 205 207 209 212 215 214 215 213 211 213 220 227 234 243 240 236 231 228 229 234 238 210 190 184 204 203 195 194 197
192 177 187 206 201 226 215 209 206 206 207 207 206 206 207 209 211 215 217 217 218 217 215 216 221 225 232 237 241 238 236 233 232 229 236 189 186 194 197 207 206 198 202
207 184 189 192 206 200 196 216 213 212 210 211 211 209 210 209 211 215 218 218 218 217 218 217 219 223 228 232 239 242 244 240 238 230 229 204 208 206 207 206 207 209 206
285 199 174 182 197 210 208 221 216 211 214 217 215 215 213 212 209 215 218 216 216 218 218 220 221 224 228 232 233 241 244 247 240 233 230 233 230 233 230 215 214 221 216
96 97 99 130 150 231 221 214 209 206 217 221 220 217 218 216 214 211 217 219 220 221 221 221 223 225 230 231 233 230 238 244 242 232 235 238 235 219 222 233 227 225 220
87 93 87 84 71 58 98 233 235 234 231 226 225 223 218 221 217 216 217 220 223 223 225 224 223 223 225 226 227 229 232 238 234 235 239 234 218 224 228 230 233 225 220
84 75 53 48 39 34 23 358 326 247 248 242 238 236 233 221 221 219 220 221 226 225 224 220 219 220 222 224 226 228 230 229 231 232 233 230 212 216 225 237 228 229 222
74 63 50 31 19 8 351 339 323 309 297 266 251 243 238 238 228 225 226 226 228 225 221 220 216 215 222 217 215 216 219 229 230 231 230 230 217 213 227 243 226 229 226
71 61 49 33 19 355 342 331 332 326 313 294 280 272 249 243 242 236 234 224 221 223 219 217 216 213 214 212 210 212 217 224 227 225 224 225 212 215 235 246 240 224 233
71 59 43 27 6 351 344 332 322 317 308 307 295 288 283 260 249 244 241 237 230 233 224 216 215 214 210 207 203 207 211 216 222 223 224 224 227 227 238 242 244 232 229
61 52 39 24 10 4 358 352 342 334 319 301 295 290 280 293 258 250 235 234 240 234 233 220 216 208 205 203 184 198 201 208 215 221 222 221 224 224 231 240 241 229 222
70 61 46 28 13 7 3 353 347 334 320 307 297 290 290 287 279 269 244 232 228 228 232 226 222 203 197 188 173 144 202 205 201 204 212 221 226 228 229 234 234 233 229
63 51 38 20 10 0 354 346 343 335 328 321 313 297 285 286 286 289 265 239 227 227 226 227 213 215 167 194 196 159 161 220 136 206 219 227 221 220 235 231 229 233 236
55 42 19 8 2 359 359 355 348 336 320 313 307 301 296 289 291 288 295 258 238 234 233 231 222 238 194 239 247 217 240 181 170 170 206 215 219 218 227 234 230 233 236
53 33 14 4 6 2 0 356 345 332 318 312 309 305 302 301 295 295 282 296 244 237 239 233 216 208 195 190 191 234 223 215 180 138 161 193 213 218 231 234 231 228 225
53 35 15 9 3 359 356 350 344 333 324 318 312 306 301 299 298 294 287 286 261 239 238 229 226 202 200 204 203 208 203 208 214 171 144 169 207 204 225 230 230 223 218